N7DTY Weather Reports


time (UTC)temp
F
wind
direction
speed
knots
gust
knots
rain 1hr
in
rain 24hr
in
rain mn
in
humidity
%
barometer
mb
20260505093013 56 213 3.5 11.3 0.00 0.00 0.00 79 1011.7
20260505091510 57 200 2.6 11.3 0.00 0.00 0.00 77 1011.4
20260505090009 58 190 3.5 10.4 0.00 0.00 0.00 73 1011.2
20260505084507 58 178 3.5 12.2 0.00 0.00 0.00 70 1011.2
20260505083005 57 171 1.7 7.0 0.00 0.00 0.00 74 1011.0
20260505081503 57 186 1.7 6.1 0.00 0.00 0.00 78 1010.9
20260505074610 56 173 2.6 13.9 0.00 0.00 0.00 79 1010.5
20260505073056 57 184 2.6 8.7 0.00 0.00 0.00 77 1010.4
20260505071553 57 187 4.3 10.4 0.00 0.00 0.00 78 1010.2
20260505070052 57 216 2.6 7.8 0.00 0.00 0.00 77 1009.9
20260505064548 58 227 2.6 9.6 0.00 0.00 0.00 76 1009.9
20260505063055 58 161 3.5 11.3 0.00 0.00 0.00 76 1009.8
20260505061615 58 192 2.6 7.0 0.00 0.00 0.00 76 1009.7
20260505060052 58 225 1.7 7.0 0.00 0.00 0.00 77 1009.6
20260505054559 59 163 1.7 8.7 0.00 0.00 0.00 76 1009.4
20260505053046 59 173 2.6 8.7 0.00 0.00 0.00 76 1009.4
20260505051546 59 174 2.6 9.6 0.00 0.00 0.00 77 1009.2
20260505041543 60 201 3.5 8.7 0.00 0.00 0.00 79 1008.8
20260505040043 60 311 0.0 2.6 0.00 0.00 0.00 80 1008.5
20260505034545 61 185 0.0 2.6 0.00 0.00 0.00 77 1008.4
20260505033049 61 13 0.0 3.5 0.00 0.00 0.00 76 1008.3
20260505031541 63 291 0.0 2.6 0.00 0.00 0.00 72 1008.1
20260505030043 65 180 0.9 1.7 0.00 0.00 0.00 65 1008.0
20260505024603 66 235 1.7 5.2 0.00 0.00 0.00 61 1008.1
20260505023041 67 182 1.7 6.1 0.00 0.00 0.00 55 1008.1
20260505021549 67 173 1.7 7.8 0.00 0.00 0.00 54 1008.3
20260505020044 67 145 1.7 6.1 0.00 0.00 0.00 55 1008.3
20260505014535 67 146 1.7 7.0 0.00 0.00 0.00 57 1008.4
20260505013033 68 108 2.6 7.8 0.00 0.00 0.00 55 1008.5
20260505011547 67 269 0.0 2.6 0.00 0.00 0.00 59 1008.6
20260505010031 68 205 2.6 7.8 0.00 0.00 0.00 55 1008.7
20260505004541 69 188 2.6 7.0 0.00 0.00 0.00 58 1008.6
20260505003030 69 202 0.9 7.0 0.00 0.00 0.00 59 1008.6
20260505001532 70 232 2.6 7.8 0.00 0.00 0.00 54 1008.7
20260505000028 71 218 1.7 6.1 0.00 0.00 0.00 55 1008.9
20260504234528 71 173 0.9 6.1 0.00 0.00 0.00 53 1008.9
20260504233028 72 200 2.6 7.0 0.00 0.00 0.00 48 1009.0
20260504231527 72 178 2.6 7.0 0.00 0.00 0.00 48 1009.1
20260504230027 73 182 2.6 5.2 0.00 0.00 0.00 48 1009.4
20260504224525 73 167 1.7 5.2 0.00 0.00 0.00 48 1009.3
20260504223031 73 169 1.7 6.1 0.00 0.00 0.00 53 1009.4
20260504221525 72 209 1.7 5.2 0.00 0.00 0.00 53 1009.6
20260504220023 72 217 1.7 6.1 0.00 0.00 0.00 54 1009.7
20260504214519 71 197 1.7 5.2 0.00 0.00 0.00 58 1009.6
20260504213021 71 179 1.7 4.3 0.00 0.00 0.00 58 1009.6
20260504211519 71 221 2.6 6.1 0.00 0.00 0.00 58 1009.8
20260504210017 70 158 0.9 4.3 0.00 0.00 0.00 57 1009.9
20260504204518 70 148 0.9 6.1 0.00 0.00 0.00 57 1010.0
20260504203017 69 194 1.7 7.0 0.00 0.00 0.00 59 1010.1
20260504201515 70 193 2.6 7.0 0.00 0.00 0.00 60 1010.1
20260504200014 70 172 2.6 5.2 0.00 0.00 0.00 62 1010.3
20260504194509 67 169 1.7 6.1 0.00 0.00 0.00 62 1010.3
20260504193007 67 168 3.5 6.1 0.00 0.00 0.00 60 1010.3
20260504191512 68 169 0.9 5.2 0.00 0.00 0.00 65 1010.2
20260504190006 68 223 0.0 2.6 0.00 0.00 0.00 67 1010.2
20260504184503 68 199 0.9 6.1 0.00 0.00 0.00 68 1010.1
20260504183003 68 165 0.9 3.5 0.00 0.00 0.00 67 1010.2
20260504181609 66 187 0.9 4.3 0.00 0.00 0.00 70 1010.3
20260504180056 66 238 0.9 4.3 0.00 0.00 0.00 71 1010.2
20260504174552 64 192 0.9 5.2 0.00 0.00 0.00 71 1010.1
20260504173055 63 238 0.9 2.6 0.00 0.00 0.00 71 1010.2
20260504171549 63 178 0.9 2.6 0.00 0.00 0.00 70 1010.2
20260504100105 53 197 0.0 0.0 0.00 0.00 0.00 81 1009.4